Погода в Сухиничи

Хотите узнать прогноз погоды в Сухиничи? Тогда Вам сюда: Погода в Сухиничи

Поиск расширенной информации на нашем сайте:

Полезная информация:

Новости сайта



14.11.2019
Обновлён Долгосрочный прогноз погоды по России и другим странам хСССР на ноябрь-декабрь 2019 года.
Опубликованы прогностические карты: Предварительный прогноз на декабрь 2019 года, Предварительный прогноз на январь 2020 года, Предварительная схема синоптических процессов на декабрь 2019 г..

11.11.2019
Обновлены Долгосрочный прогноз погоды по России и другим странам хСССР на ноябрь-декабрь 2019 года и Предварительный прогноз на зиму 2019/2020 годов

04.11.2019
Опубликован Долгосрочный прогноз погоды по России и другим странам хСССР на ноябрь 2019 года
Сравнение прогнозируемой аномалии приземной температуры воздуха на ноябрь 2019 года по разным моделям
Предварительный прогноз на зиму 2019/2020 года




Погода в Сухиничи - сегодня

Время (UTC), дата Ветер
(°,м/с) 
Видим.   Явления Облачность Т
(°С)
Тd
(°С)
f(%) Тe
(°С)
Pmin
(гПа)
dP
(гПа)
Po
(мм)
O2
(г/м3)
Тmin Tmax R s Состояние
почвы
00 20.11.19 110 (В) 4600 м  в посл. час морось  10/10 300 м 
[St]
+1.3 +0.9 97 +1  1034.3  0.6  753  302           
03 20.11.19 110 (В) 4200 м  слаб. морось  10/10 300 м 
[Frnb]
+1.8 +1.2 96 1034.8  0.6  754  301  +0.4    0.5     
06 20.11.19 110 (В) 1500 м  в посл. час морось  10/10 300 м 
[St]
+2.4 +1.8 96 +1  1035.8  1.1  754  301  +0.8    0.5     
09 20.11.19 110 (В) 8000 м  дымка  9/9 600 м кучево-дожд. 
[Cb cap]
+3.9 +2.9 93 +2  1037.1  1.3  755  300           
12 20.11.19 110 (В) 18000 м    9/9 600 м кучево-дожд. 
[Cb cap]
+4.3 +1.9 84 +3  1038.3  1.2  756  300           
15 20.11.19 110 (В) 10 км  в посл. час ливневой снег  9/9 600 м кучево-дожд. 
[Cb cap]
+1.7 +0.7 93 -1  1040.2  1.7  758  303      0.0     
18 20.11.19 120 (ЮВ) 10 км    9/9 600 м 
[Sc]
+0.4 -0.9 91 -3  1041.8  1.4  759  305    +4.4  0.0     
21 20.11.19 120 (ЮВ) 4{11}  12000 м    9/9 2000 м средняя 
[Ac As]
-0.8 -2.4 89 -3  1043.3  1.2  760  307           
00 21.11.19 120 (ЮВ) 11000 м    9/6 600 м средняя 
[Sc|Ac As]
-1.9 -3.5 89 -5  1044.5  760  309           
03 21.11.19 110 (В) 18000 м    9/9 2000 м средняя 
[Ac As]
-3.5 -5.8 84 -6  1045.4  0.7  761  311  -3.5         
06 21.11.19 120 (ЮВ) 22000 м    9/9 2000 м средняя 
[Ac As]
-4.8 -8 78 -8  1046.7  1.2  762  313  -4.8         
09 21.11.19 130 (ЮВ) 24000 м    9/9 2000 м средняя 
[Ac As]
-5.9 -9.8 74 -9  1047.7  0.7  762  315           
12 21.11.19 130 (ЮВ) 30000 м    ясно 
-4.4 -10.1 64 -8  1046.9  -0.7  762  313           
15 21.11.19 140 (ЮВ) 24000 м    ясно 
-6.7 -10.9 72 -9  1047  0.1  762  316           
18 21.11.19 130 (ЮВ) 22000 м    ясно 
-8.4 -11.7 77 -10  1047.6  0.5  762  318    -4.2       
21 21.11.19 130 (ЮВ) 20000 м    ясно 
-9.3 -12.3 79 -12  1047.9  0.1  762  319           
00 22.11.19 130 (ЮВ) 20000 м    ясно 
-10.2 -13.3 78 -12  1047.8  -0.2  762  320           
03 22.11.19 120 (ЮВ) 20000 м    ясно 
-11.3 -13.9 81 -13  1047.7  -0.1  762  322  -11.3         
06 22.11.19 120 (ЮВ) 20000 м    3/0 верхняя 
[Ci fib]
-11.4 -14.2 80 -11  1048.2  0.5  762  322  -11.9         
09 22.11.19 150 (ЮВ) 40000 м    9/0 верхняя 
[Ci]
-5.8 -13.4 55 -7  1047.7  762  315           
12 22.11.19 120 (ЮВ) 40000 м    8/0 верхняя 
[Ci fib]
-4.4 -13.3 50 -6  1045.6  -1.8  761  313           
15 22.11.19 110 (В) 28000 м    3/0 верхняя 
[Ci fib]
-7.8 -13.4 64 -9  1045.4  -0.6  760  317           
18 22.11.19 130 (ЮВ) 22000 м    3/0 верхняя 
[Ci fib]
-8.4 -12.9 70 -10  1044.8  -0.5  760  317    -4.4       
21 22.11.19 120 (ЮВ) 20000 м    ясно 
-9.2 -12.9 74 -11  1045.1  760  318           
00 23.11.19 140 (ЮВ) 20000 м    3/0 верхняя 
[Ci fib]
-9.9 -13.1 77 -12  1044.5  -0.7  760  319           
Время (UTC), дата Ветер
(°,м/с) 
Видим.   Явления Облачность Т
(°С)
Тd
(°С)
f(%) Тe
(°С)
Pmin
(гПа)
dP
(гПа)
Po
(мм)
O2
(г/м3)
Тmin Tmax R s Состояние
почвы

Для получения пояснительной информации подведите курсор к названию столбца.

ПОГОДА в Сухиничи - архив

Всё, что Вы хотите узнать о погоде в Сухиничи - удобно и подробно!

Выберите нужную дату (начиная с 1 января 2019* года) и нажмите кнопку "Найти".
Будут отображены архивные сводки погоды по пункту Сухиничи, начиная с указанной даты.


Отображать данные в формате CSV (для использования в таблицах Excel)


Внимание! Наш архив погоды предназначен исключительно для личного некоммерческого использования в познавательных целях. Если Вам необходимы официальные справки о состоянии погоды (для производственных, юридических, коммерческих и т.п. целей), обращайтесь в органы Росгидромета.

*Примечание: данная дата относится к архиву по метеостанциям СССР (Россия, СНГ, Балтия).
Архив по метеостанциям Зарубежной Европы и Азии (кроме Китая) хранится 10 дней, по другим регионам земного шара (Китай, Африка, Америка, Австралия, Океания) - 1 день.

Сухиничи - район местоположения метеостанции


Название, широта, долгота, высота метеостанции:
Сухиничи 54.1°ш. 35.3°д. 238 м над ур. моря [Российская Федерация]

Дополнительная информация

В oтличие oт бoльшинства пoгoдных сайтoв мы публикуем пoдрoбную метеoинфoрмацию в детальнoм прoфессиoнальнoм фoрмате.

Характеристики температуры и влажнoсти вoздуха измеряются на высoте 2 м в тени вдали oт зданий и деревьев.
Скoрoсть ветра измеряется на высoте 10 м (на урoвне рoста челoвека скoрoсть ветра ниже в 1.5-2 раза). Если метеoстанция нахoдится в гoрoде или в лесу, тo скoрoсть ветра занижена на 2-4 м/с пo сравнению с oткрытым местoм. Скoрoсть ветра над акватoриями крупных рек и oзёр, а также на вершинах хoлмoв на 2-5 м/с выше, чем в oбычных услoвиях.
Атмoсфернoе давление в разных тoчках местнoсти мoжет значительнo oтличаться oт давления на метеoстанции, в зависимoсти oт услoвий рельефа (при пoдъёме на 10 м давление пoнижается примернo на 1 мм рт.ст.).